QPF
0.09 0.11 0.14 0.17 0.20 0.22 0.21 0.18 0.15 0.12 0.09 0.07 0.05 0.04 0.02 0.01 0.00 0.00 0.00 0.00 0.00 0.00 0.00 0.00 0.00 0.00 0.01 0.01 0.01 0.01 0.01 0.01 0.02 0.02 0.03 0.04 0.09 0.16
0.12 0.14 0.16 0.17 0.16 0.18 0.16 0.13 0.10 0.06 0.06 0.04 0.03 0.01 0.00 0.00 0.00 0.00 0.00 0.00 0.00 0.00 0.00 0.00 0.00 0.00 0.00 0.00 0.00 0.00 0.00 0.00 0.01 0.01 0.01 0.01 0.03 0.08
0.16 0.18 0.18 0.16 0.15 0.14 0.11 0.09 0.05 0.02 0.03 0.02 0.01 0.00 0.00 0.00 0.00 0.00 0.00 0.00 0.00 0.00 0.00 0.00 0.00 0.00 0.00 0.00 0.00 0.00 0.00 0.00 0.00 0.00 0.00 0.01 0.02 0.04
0.19 0.19 0.16 0.11 0.08 0.06 0.05 0.03 0.02 0.02 0.01 0.01 0.00 0.00 0.00 0.00 0.00 0.00 0.00 0.00 0.00 0.00 0.00 0.00 0.00 0.00 0.00 0.00 0.00 0.00 0.00 0.00 0.00 0.00 0.00 0.01 0.02 0.04
0.15 0.12 0.08 0.05 0.02 0.02 0.02 0.01 0.01 0.01 0.00 0.00 0.00 0.00 0.00 0.00 0.00 0.00 0.00 0.00 0.00 0.01 0.01 0.01 0.00 0.00 0.00 0.00 0.00 0.00 0.00 0.00 0.00 0.00 0.01 0.01 0.02 0.05
0.08 0.05 0.03 0.02 0.01 0.00 0.00 0.00 0.00 0.00 0.00 0.00 0.00 0.00 0.00 0.00 0.00 0.00 0.00 0.00 0.00 0.00 0.01 0.01 0.01 0.01 0.01 0.01 0.01 0.00 0.00 0.00 0.00 0.01 0.02 0.03 0.04 0.06
0.04 0.02 0.01 0.00 0.00 0.00 0.00 0.00 0.00 0.00 0.00 0.00 0.00 0.00 0.00 0.00 0.00 0.00 0.00 0.00 0.00 0.00 0.00 0.00 0.00 0.01 0.01 0.01 0.01 0.01 0.00 0.00 0.01 0.02 0.03 0.05 0.06 0.09
0.01 0.00 0.00 0.00 0.00 0.00 0.00 0.00 0.00 0.00 0.00 0.00 0.00 0.00 0.00 0.00 0.00 0.00 0.00 0.00 0.00 0.00 0.00 0.00 0.00 0.00 0.00 0.00 0.01 0.01 0.01 0.01 0.01 0.02 0.04 0.08 0.11 0.15
0.00 0.00 0.00 0.00 0.00 0.00 0.00 0.00 0.00 0.00 0.00 0.00 0.00 0.00 0.00 0.00 0.00 0.00 0.00 0.00 0.00 0.00 0.00 0.00 0.00 0.00 0.00 0.01 0.01 0.01 0.01 0.02 0.02 0.03 0.04 0.08 0.14 0.22
0.00 0.00 0.00 0.00 0.00 0.00 0.00 0.00 0.00 0.00 0.00 0.00 0.00 0.00 0.00 0.00 0.00 0.00 0.00 0.00 0.00 0.00 0.00 0.00 0.00 0.00 0.00 0.01 0.01 0.01 0.02 0.02 0.03 0.04 0.06 0.08 0.12 0.20
0.00 0.00 0.00 0.00 0.00 0.00 0.00 0.00 0.00 0.00 0.00 0.00 0.00 0.00 0.00 0.00 0.00 0.00 0.00 0.00 0.00 0.00 0.00 0.00 0.00 0.00 0.01 0.01 0.01 0.01 0.03 0.03 0.04 0.07 0.11 0.13 0.16 0.21
0.00 0.00 0.00 0.00 0.00 0.00 0.00 0.00 0.00 0.00 0.00 0.00 0.00 0.00 0.00 0.00 0.00 0.00 0.00 0.00 0.00 0.00 0.00 0.00 0.00 0.00 0.00 0.01 0.01 0.01 0.02 0.04 0.06 0.07 0.10 0.14 0.21 0.26
0.00 0.00 0.00 0.00 0.00 0.00 0.00 0.00 0.00 0.00 0.00 0.00 0.00 0.00 0.00 0.00 0.00 0.00 0.00 0.00 0.00 0.00 0.00 0.00 0.00 0.00 0.00 0.01 0.02 0.02 0.03 0.05 0.07 0.10 0.11 0.13 0.22 0.33
0.00 0.00 0.00 0.00 0.00 0.00 0.00 0.00 0.00 0.00 0.00 0.00 0.00 0.00 0.00 0.00 0.00 0.00 0.00 0.00 0.00 0.00 0.00 0.00 0.00 0.00 0.00 0.00 0.01 0.02 0.04 0.07 0.09 0.14 0.16 0.18 0.23 0.34
0.00 0.00 0.00 0.00 0.00 0.00 0.00 0.00 0.00 0.00 0.00 0.00 0.00 0.00 0.00 0.00 0.00 0.00 0.00 0.00 0.00 0.00 0.00 0.00 0.00 0.00 0.00 0.00 0.00 0.00 0.02 0.06 0.08 0.12 0.16 0.22 0.27 0.31
0.00 0.00 0.00 0.00 0.00 0.00 0.00 0.00 0.00 0.00 0.00 0.00 0.00 0.00 0.00 0.00 0.00 0.00 0.00 0.00 0.00 0.00 0.00 0.00 0.00 0.00 0.00 0.00 0.00 0.00 0.00 0.02 0.05 0.08 0.15 0.23 0.29 0.32
0.00 0.00 0.00 0.00 0.00 0.00 0.00 0.00 0.00 0.00 0.00 0.00 0.00 0.00 0.00 0.00 0.00 0.00 0.00 0.00 0.00 0.00 0.00 0.00 0.00 0.00 0.00 0.00 0.00 0.00 0.00 0.00 0.01 0.02 0.05 0.13 0.24 0.34
0.00 0.00 0.00 0.00 0.00 0.00 0.00 0.00 0.00 0.00 0.00 0.00 0.00 0.00 0.00 0.00 0.00 0.00 0.00 0.00 0.00 0.00 0.00 0.00 0.00 0.00 0.00 0.00 0.00 0.00 0.00 0.00 0.00 0.00 0.01 0.04 0.11 0.21
0.00 0.00 0.00 0.00 0.00 0.00 0.00 0.00 0.00 0.00 0.00 0.00 0.00 0.00 0.00 0.00 0.00 0.00 0.00 0.00 0.00 0.00 0.00 0.00 0.00 0.00 0.00 0.00 0.00 0.00 0.00 0.00 0.00 0.00 0.00 0.01 0.03 0.08
0.00 0.00 0.00 0.00 0.00 0.00 0.00 0.00 0.00 0.00 0.00 0.00 0.00 0.00 0.00 0.00 0.00 0.00 0.00 0.00 0.00 0.00 0.00 0.00 0.00 0.00 0.00 0.00 0.00 0.00 0.00 0.00 0.00 0.00 0.00 0.00 0.01 0.02
0.00 0.00 0.00 0.00 0.00 0.00 0.00 0.00 0.00 0.00 0.00 0.00 0.00 0.00 0.00 0.00 0.00 0.00 0.00 0.00 0.00 0.00 0.00 0.00 0.00 0.00 0.00 0.00 0.00 0.00 0.00 0.00 0.00 0.00 0.00 0.00 0.00 0.01
0.00 0.00 0.00 0.00 0.00 0.00 0.00 0.00 0.00 0.00 0.00 0.00 0.00 0.00 0.00 0.00 0.00 0.00 0.00 0.00 0.00 0.00 0.00 0.00 0.00 0.00 0.00 0.00 0.00 0.00 0.00 0.00 0.00 0.00 0.00 0.00 0.00 0.00
0.00 0.00 0.00 0.00 0.00 0.00 0.00 0.00 0.00 0.00 0.00 0.00 0.00 0.00 0.00 0.00 0.00 0.00 0.00 0.00 0.00 0.00 0.00 0.00 0.00 0.00 0.00 0.00 0.00 0.00 0.00 0.00 0.00 0.00 0.00 0.00 0.00 0.00
MSLP
1007.11 1007.35 1007.56 1007.73 1007.86 1007.95 1008.01 1008.03 1008.03 1008.01 1007.96 1007.89 1007.79 1007.67 1007.53 1007.39 1007.25 1007.14 1007.07 1007.06 1007.12 1007.26 1007.46 1007.71 1008.00 1008.29 1008.57 1008.82 1009.03 1009.19 1009.30 1009.39 1009.44 1009.48 1009.52 1009.58 1009.65 1009.77
1007.04 1007.28 1007.46 1007.59 1007.69 1007.76 1007.83 1007.90 1007.97 1008.04 1008.09 1008.13 1008.13 1008.09 1008.01 1007.90 1007.77 1007.64 1007.53 1007.48 1007.50 1007.59 1007.76 1007.98 1008.23 1008.50 1008.76 1008.98 1009.15 1009.26 1009.33 1009.34 1009.32 1009.27 1009.22 1009.17 1009.14 1009.14
1007.10 1007.32 1007.48 1007.57 1007.64 1007.69 1007.76 1007.85 1007.98 1008.12 1008.28 1008.42 1008.53 1008.58 1008.57 1008.50 1008.39 1008.26 1008.13 1008.04 1008.01 1008.06 1008.17 1008.34 1008.55 1008.78 1008.99 1009.17 1009.30 1009.36 1009.36 1009.31 1009.20 1009.06 1008.91 1008.74 1008.59 1008.47
1007.30 1007.52 1007.64 1007.70 1007.73 1007.76 1007.82 1007.93 1008.09 1008.30 1008.54 1008.77 1008.97 1009.11 1009.17 1009.16 1009.07 1008.95 1008.81 1008.68 1008.61 1008.59 1008.64 1008.75 1008.90 1009.06 1009.21 1009.33 1009.39 1009.39 1009.33 1009.19 1009.01 1008.77 1008.51 1008.23 1007.96 1007.72
1007.65 1007.85 1007.95 1007.99 1007.98 1007.99 1008.03 1008.14 1008.33 1008.58 1008.87 1009.17 1009.44 1009.65 1009.77 1009.81 1009.75 1009.64 1009.49 1009.33 1009.21 1009.13 1009.11 1009.14 1009.20 1009.28 1009.36 1009.40 1009.39 1009.31 1009.17 1008.96 1008.69 1008.36 1008.00 1007.62 1007.23 1006.88
1008.10 1008.29 1008.38 1008.40 1008.38 1008.36 1008.39 1008.49 1008.67 1008.94 1009.26 1009.59 1009.91 1010.16 1010.33 1010.40 1010.37 1010.26 1010.10 1009.92 1009.75 1009.61 1009.51 1009.46 1009.44 1009.43 1009.41 1009.36 1009.26 1009.11 1008.88 1008.59 1008.24 1007.83 1007.38 1006.91 1006.44 1006.00
1008.61 1008.80 1008.89 1008.90 1008.86 1008.84 1008.85 1008.93 1009.11 1009.36 1009.67 1010.01 1010.33 1010.60 1010.79 1010.88 1010.86 1010.76 1010.60 1010.40 1010.19 1009.99 1009.83 1009.69 1009.58 1009.48 1009.37 1009.23 1009.05 1008.81 1008.51 1008.15 1007.72 1007.24 1006.72 1006.18 1005.64 1005.14
1009.14 1009.32 1009.41 1009.43 1009.41 1009.38 1009.38 1009.45 1009.59 1009.81 1010.09 1010.40 1010.70 1010.95 1011.14 1011.23 1011.22 1011.12 1010.96 1010.74 1010.51 1010.27 1010.05 1009.85 1009.67 1009.48 1009.29 1009.07 1008.81 1008.50 1008.13 1007.70 1007.21 1006.68 1006.11 1005.52 1004.95 1004.41
1009.62 1009.81 1009.92 1009.96 1009.96 1009.94 1009.94 1009.99 1010.10 1010.28 1010.50 1010.76 1011.01 1011.23 1011.39 1011.46 1011.45 1011.36 1011.19 1010.98 1010.73 1010.48 1010.22 1009.98 1009.74 1009.50 1009.24 1008.95 1008.63 1008.25 1007.83 1007.35 1006.82 1006.25 1005.65 1005.04 1004.45 1003.91
1010.03 1010.23 1010.37 1010.45 1010.49 1010.49 1010.51 1010.54 1010.62 1010.75 1010.92 1011.11 1011.30 1011.46 1011.58 1011.63 1011.61 1011.51 1011.36 1011.15 1010.91 1010.66 1010.39 1010.13 1009.86 1009.58 1009.28 1008.95 1008.58 1008.16 1007.70 1007.18 1006.63 1006.03 1005.42 1004.82 1004.24 1003.72
1010.35 1010.58 1010.77 1010.90 1010.98 1011.03 1011.06 1011.10 1011.16 1011.24 1011.35 1011.47 1011.60 1011.70 1011.77 1011.79 1011.76 1011.67 1011.52 1011.33 1011.11 1010.87 1010.62 1010.35 1010.08 1009.78 1009.46 1009.11 1008.72 1008.28 1007.79 1007.25 1006.68 1006.09 1005.48 1004.89 1004.33 1003.85
1010.60 1010.87 1011.11 1011.30 1011.44 1011.54 1011.60 1011.65 1011.70 1011.75 1011.81 1011.88 1011.94 1011.99 1012.02 1012.01 1011.96 1011.87 1011.74 1011.57 1011.38 1011.16 1010.93 1010.68 1010.41 1010.12 1009.80 1009.44 1009.04 1008.59 1008.09 1007.55 1006.98 1006.39 1005.80 1005.23 1004.72 1004.29
1010.80 1011.12 1011.41 1011.66 1011.86 1012.01 1012.12 1012.19 1012.24 1012.27 1012.30 1012.33 1012.34 1012.35 1012.35 1012.32 1012.26 1012.17 1012.05 1011.90 1011.73 1011.54 1011.34 1011.11 1010.86 1010.58 1010.27 1009.92 1009.51 1009.06 1008.57 1008.03 1007.47 1006.90 1006.33 1005.80 1005.33 1004.95
1010.98 1011.33 1011.67 1011.98 1012.24 1012.44 1012.59 1012.69 1012.75 1012.79 1012.80 1012.81 1012.80 1012.79 1012.76 1012.71 1012.65 1012.56 1012.46 1012.33 1012.18 1012.01 1011.82 1011.61 1011.38 1011.12 1010.81 1010.47 1010.07 1009.63 1009.15 1008.62 1008.08 1007.53 1006.99 1006.50 1006.08 1005.75
1011.14 1011.52 1011.90 1012.25 1012.55 1012.80 1012.99 1013.12 1013.21 1013.26 1013.28 1013.29 1013.28 1013.25 1013.22 1013.17 1013.11 1013.02 1012.93 1012.81 1012.67 1012.52 1012.34 1012.15 1011.92 1011.67 1011.38 1011.04 1010.65 1010.22 1009.75 1009.25 1008.72 1008.20 1007.71 1007.26 1006.88 1006.60
1011.27 1011.67 1012.06 1012.43 1012.77 1013.05 1013.28 1013.45 1013.57 1013.65 1013.69 1013.72 1013.72 1013.71 1013.68 1013.64 1013.58 1013.51 1013.42 1013.31 1013.18 1013.03 1012.86 1012.67 1012.45 1012.20 1011.91 1011.58 1011.20 1010.78 1010.33 1009.85 1009.36 1008.87 1008.42 1008.01 1007.68 1007.44
1011.34 1011.74 1012.14 1012.51 1012.86 1013.17 1013.42 1013.63 1013.79 1013.91 1013.99 1014.05 1014.08 1014.10 1014.09 1014.07 1014.03 1013.97 1013.89 1013.78 1013.66 1013.51 1013.34 1013.14 1012.92 1012.67 1012.38 1012.06 1011.69 1011.29 1010.86 1010.41 1009.95 1009.51 1009.09 1008.73 1008.44 1008.23
1011.32 1011.71 1012.09 1012.46 1012.81 1013.12 1013.40 1013.64 1013.85 1014.01 1014.14 1014.25 1014.32 1014.38 1014.41 1014.42 1014.40 1014.36 1014.29 1014.20 1014.08 1013.93 1013.76 1013.57 1013.34 1013.09 1012.81 1012.49 1012.14 1011.76 1011.35 1010.93 1010.51 1010.11 1009.74 1009.41 1009.15 1008.97
1011.19 1011.54 1011.90 1012.25 1012.60 1012.92 1013.22 1013.50 1013.74 1013.96 1014.14 1014.30 1014.43 1014.53 1014.61 1014.66 1014.67 1014.66 1014.61 1014.54 1014.43 1014.30 1014.13 1013.94 1013.72 1013.48 1013.20 1012.90 1012.56 1012.21 1011.83 1011.45 1011.06 1010.70 1010.36 1010.07 1009.84 1009.67
1010.91 1011.24 1011.57 1011.90 1012.24 1012.57 1012.89 1013.20 1013.49 1013.75 1013.99 1014.21 1014.40 1014.55 1014.68 1014.77 1014.83 1014.85 1014.84 1014.79 1014.71 1014.60 1014.46 1014.28 1014.08 1013.85 1013.59 1013.30 1012.99 1012.66 1012.32 1011.97 1011.62 1011.30 1011.00 1010.73 1010.51 1010.34
1010.51 1010.80 1011.10 1011.42 1011.76 1012.10 1012.44 1012.78 1013.11 1013.42 1013.72 1013.99 1014.23 1014.44 1014.62 1014.76 1014.86 1014.93 1014.96 1014.96 1014.92 1014.84 1014.73 1014.59 1014.42 1014.22 1013.98 1013.72 1013.44 1013.13 1012.82 1012.50 1012.19 1011.90 1011.63 1011.39 1011.18 1011.01
1009.99 1010.26 1010.55 1010.85 1011.18 1011.53 1011.89 1012.26 1012.63 1012.99 1013.33 1013.65 1013.94 1014.20 1014.42 1014.61 1014.77 1014.88 1014.97 1015.02 1015.03 1015.01 1014.95 1014.85 1014.72 1014.56 1014.36 1014.13 1013.87 1013.60 1013.32 1013.03 1012.76 1012.49 1012.24 1012.02 1011.82 1011.64
1009.40 1009.65 1009.92 1010.22 1010.55 1010.90 1011.28 1011.68 1012.07 1012.46 1012.84 1013.19 1013.52 1013.82 1014.09 1014.33 1014.53 1014.70 1014.85 1014.95 1015.03 1015.07 1015.07 1015.03 1014.96 1014.84 1014.68 1014.49 1014.27 1014.03 1013.78 1013.52 1013.27 1013.03 1012.80 1012.59 1012.40 1012.22
Thickness
5683 5682 5681 5680 5679 5679 5679 5678 5676 5672 5672 5675 5679 5684 5688 5692 5695 5698 5700 5702 5704 5704 5705 5705 5705 5705 5705 5704 5704 5703 5702 5702 5702 5701 5701 5701 5701 5702
5674 5673 5673 5672 5672 5672 5673 5674 5674 5670 5665 5666 5669 5674 5679 5683 5686 5689 5691 5693 5695 5696 5696 5695 5695 5695 5696 5695 5694 5694 5694 5693 5693 5693 5693 5694 5694 5695
5665 5665 5665 5665 5664 5665 5666 5667 5668 5666 5660 5658 5662 5665 5669 5672 5675 5679 5681 5683 5685 5686 5686 5686 5685 5685 5685 5685 5684 5684 5684 5684 5684 5685 5686 5687 5688 5690
5656 5656 5656 5657 5657 5658 5660 5660 5660 5659 5656 5651 5652 5655 5659 5662 5665 5668 5670 5672 5672 5674 5675 5675 5674 5674 5675 5674 5674 5674 5674 5675 5676 5677 5678 5680 5682 5684
5647 5647 5647 5648 5649 5651 5652 5652 5652 5651 5649 5645 5643 5646 5649 5652 5655 5657 5658 5659 5661 5662 5662 5662 5663 5663 5664 5664 5664 5664 5664 5665 5667 5668 5670 5673 5676 5679
5635 5636 5638 5639 5640 5642 5644 5643 5643 5641 5638 5636 5635 5636 5638 5641 5642 5643 5644 5646 5647 5649 5650 5650 5651 5651 5652 5652 5653 5653 5654 5655 5657 5660 5663 5666 5670 5673
5624 5626 5629 5631 5633 5635 5635 5634 5634 5631 5628 5626 5624 5625 5625 5627 5627 5629 5631 5632 5634 5635 5636 5637 5638 5639 5640 5640 5641 5641 5643 5645 5647 5651 5655 5659 5664 5668
5615 5616 5619 5621 5624 5625 5626 5626 5626 5623 5619 5617 5615 5615 5614 5615 5616 5619 5618 5619 5618 5622 5623 5624 5625 5625 5627 5628 5628 5630 5632 5634 5637 5641 5645 5650 5656 5661
5607 5609 5611 5612 5614 5615 5615 5616 5615 5615 5615 5612 5609 5608 5607 5607 5607 5607 5607 5606 5605 5607 5610 5610 5612 5613 5615 5616 5617 5618 5621 5623 5626 5630 5634 5640 5646 5653
5600 5601 5601 5602 5605 5606 5606 5606 5605 5606 5606 5606 5604 5602 5602 5601 5600 5599 5598 5597 5597 5598 5597 5595 5597 5599 5603 5604 5605 5606 5608 5611 5615 5618 5623 5629 5635 5642
5593 5594 5596 5595 5597 5600 5599 5597 5597 5597 5601 5601 5600 5598 5597 5596 5594 5592 5588 5585 5581 5582 5583 5580 5581 5583 5587 5590 5592 5594 5597 5600 5603 5607 5611 5616 5622 5628
5585 5587 5590 5590 5591 5593 5591 5590 5588 5587 5590 5591 5590 5590 5588 5587 5585 5582 5578 5573 5569 5566 5568 5566 5566 5566 5569 5574 5578 5581 5584 5588 5592 5596 5600 5603 5607 5613
5582 5581 5583 5585 5586 5586 5586 5584 5583 5583 5582 5581 5579 5578 5578 5577 5575 5573 5570 5566 5560 5555 5555 5555 5553 5552 5552 5555 5562 5567 5571 5575 5580 5585 5589 5591 5595 5599
5580 5579 5579 5581 5581 5581 5580 5580 5579 5578 5576 5573 5571 5568 5567 5565 5565 5564 5561 5558 5554 5549 5547 5546 5543 5542 5541 5542 5546 5552 5558 5563 5567 5573 5578 5581 5584 5587
5579 5579 5578 5578 5577 5575 5576 5575 5574 5572 5569 5565 5562 5560 5558 5557 5557 5555 5552 5550 5547 5543 5541 5539 5537 5535 5534 5532 5533 5537 5543 5549 5554 5560 5566 5571 5575 5578
5576 5576 5575 5574 5572 5572 5570 5569 5568 5566 5563 5559 5556 5555 5553 5551 5548 5545 5541 5539 5535 5532 5533 5532 5530 5528 5526 5525 5524 5525 5529 5533 5540 5547 5553 5558 5563 5567
5573 5570 5569 5567 5566 5564 5563 5563 5562 5560 5558 5555 5552 5549 5547 5544 5541 5538 5534 5530 5525 5520 5519 5521 5522 5521 5519 5517 5515 5516 5518 5522 5527 5533 5539 5545 5550 5554
5572 5568 5566 5564 5562 5560 5559 5558 5557 5555 5554 5552 5548 5545 5541 5538 5535 5532 5529 5524 5518 5514 5511 5509 5509 5510 5510 5511 5509 5508 5509 5511 5515 5521 5526 5531 5536 5539
5570 5567 5565 5563 5561 5559 5557 5556 5554 5553 5551 5549 5546 5542 5539 5536 5532 5528 5524 5519 5514 5510 5506 5503 5500 5497 5494 5494 5500 5502 5500 5502 5505 5509 5512 5516 5520 5523
5568 5566 5564 5563 5561 5559 5557 5555 5553 5551 5548 5546 5543 5540 5536 5533 5529 5524 5520 5516 5511 5506 5502 5498 5494 5490 5488 5487 5488 5492 5495 5494 5495 5497 5500 5504 5507 5510
5566 5565 5564 5563 5561 5559 5558 5556 5553 5550 5547 5544 5541 5537 5534 5530 5526 5522 5518 5515 5509 5503 5497 5493 5490 5490 5488 5486 5483 5483 5486 5489 5489 5488 5490 5492 5495 5498
5566 5565 5564 5562 5561 5559 5557 5555 5552 5549 5546 5542 5539 5535 5532 5529 5525 5520 5516 5511 5505 5501 5496 5492 5490 5487 5482 5477 5474 5474 5475 5479 5482 5483 5484 5484 5482 5484
5567 5565 5563 5562 5560 5559 5557 5555 5552 5548 5545 5542 5538 5534 5531 5527 5523 5518 5513 5509 5504 5499 5494 5489 5485 5481 5476 5472 5469 5468 5469 5469 5469 5471 5473 5475 5476 5476